This demonstration page uses our WeatherBlox Daily Observations layout. Learn more.

36.17497, -115.13722

Hourly Observations for August 28, 2018

Temp ( °F °C ) Dew Point ( °F °C ) Humidity (%) Winds ( mph kmh ) Pressure ( in mb ) Visibility ( mi km ) Precip ( " mm )
12:53 am 00:53 Clear 85 29.4 31 -0.6 14 14 SSW 12 19 29.71 1006 10 16.0934 0 0
1:53 am 01:53 Clear 82 27.8 33 0.6 17 17 S 10 17 29.71 1006 10 16.0934 0 0
2:53 am 02:53 Clear 80 26.7 32 0 17 17 SW 5 7 29.72 1006 10 16.0934 0 0
3:53 am 03:53 Clear 76 24.4 34 1.1 22 22 NNW 5 7 29.74 1007 10 16.0934 0 0
4:53 am 04:53 Clear 77 25 34 1.1 21 21 N 6 9 29.75 1008 10 16.0934 0 0
5:53 am 05:53 Clear 75 23.9 29 -1.7 18 18 N 7 11 29.79 1009 10 16.0934 0 0
6:53 am 06:53 Sunny 76 24.4 30 -1.1 18 18 W 6 9 29.83 1010 10 16.0934 0 0
7:53 am 07:53 Sunny 79 26.1 33 0.6 19 19 WNW 6 9 29.85 1011 10 16.0934 0 0
8:53 am 08:53 Sunny 83 28.3 31 -0.6 15 15 Calm 29.87 1011 10 16.0934 0 0
9:53 am 09:53 Sunny 85 29.4 36 2.2 17 17 ESE 7 11 29.89 1012 10 16.0934 0 0
10:53 am 10:53 Sunny 88 31.1 35 1.7 15 15 ENE 8 13 29.89 1012 10 16.0934 0 0
11:53 am 11:53 Sunny 89 31.7 33 0.6 14 14 SSW 6 9 29.89 1012 10 16.0934 0 0
12:53 pm 12:53 Sunny 91 32.8 32 0 12 12 S 8 13 29.87 1012 10 16.0934 0 0
1:53 pm 13:53 Sunny 94 34.4 31 -0.6 11 11 VRB 3 6 29.85 1011 10 16.0934 0 0
2:53 pm 14:53 Sunny 95 35 31 -0.6 10 10 SE 9 15 29.83 1010 10 16.0934 0 0
3:53 pm 15:53 Sunny 98 36.7 26 -3.3 8 8 SSW 17 28 29.81 1010 10 16.0934 0 0
4:53 pm 16:53 Sunny 97 36.1 25 -3.9 7 7 S 7 11 29.8 1009 10 16.0934 0 0
5:53 pm 17:53 Sunny 97 36.1 27 -2.8 8 8 S 10 17 29.8 1009 10 16.0934 0 0
6:53 pm 18:53 Sunny 95 35 31 -0.6 10 10 S 9 15 29.8 1009 10 16.0934 0 0
7:53 pm 19:53 Clear 92 33.3 33 0.6 12 12 SE 9 15 29.81 1010 10 16.0934 0 0
8:53 pm 20:53 Clear 90 32.2 34 1.1 14 14 Calm 29.82 1010 10 16.0934 0 0
9:53 pm 21:53 Clear 88 31.1 31 -0.6 13 13 SSW 6 9 29.83 1010 10 16.0934 0 0
10:53 pm 22:53 Clear 86 30 32 0 14 14 W 5 7 29.85 1011 10 16.0934 0 0
11:53 pm 23:53 Clear 83 28.3 32 0 16 16 WSW 8 13 29.85 1011 10 16.0934 0 0

Powered by AerisWeather